Date String (YYYY-MM-DD hh:mm:ss) UTC,Instrument flags,Ambient pressure (hPa),Sample flow (lpm),Bypass flow (lpm),Sample temperature (°C),Ambient temperature (°C),ASC tube jacket temperature (°C),LED temperature (°C),Box temperature (°C),Sample RH (%),Span deviation,Mass concentration (μg/m³),Mass concentration (μg/m³),Mass concentration (μg/m³)
DateTimeUTC,F1_M11,P_M11,Q1_M11,Q2_M11,T1_M11,T2_M11,T3_M11,T4_M11,T5_M11,U1_M11,ZSPAN_M11,X0_M11,X2_M11,X1_M11
2022-02-09 23:00:00,,0826.1,4.99,0.00,27.7,26.9,00.0,36.6,29.5,10.3,0000.0,0010.10,0004.70,0004.08
2022-02-09 23:01:00,,0826.1,4.99,0.00,27.7,26.9,00.0,36.6,29.5,10.1,0000.0,0010.12,0004.68,0004.09
2022-02-09 23:02:00,,0826.1,5.00,0.00,27.7,26.9,00.0,36.6,29.5,10.2,0000.0,0010.31,0004.70,0004.10
2022-02-09 23:03:00,,0826.1,5.00,0.00,27.7,26.9,00.0,36.6,29.5,10.3,0000.0,0010.07,0004.70,0004.10
2022-02-09 23:04:00,,0826.1,5.01,0.00,27.7,26.9,00.0,36.6,29.5,10.4,0000.0,0010.06,0004.68,0004.11
2022-02-09 23:05:00,,0826.1,4.99,0.00,27.7,26.9,00.0,36.6,29.5,10.4,0000.0,0010.23,0004.68,0004.10
2022-02-09 23:06:00,,0826.1,4.99,0.00,27.7,26.9,00.0,36.6,29.5,10.4,0000.0,0010.79,0004.69,0004.10
2022-02-09 23:07:00,,0826.1,5.01,0.00,27.7,26.9,00.0,36.6,29.5,10.2,0000.0,0011.65,0004.69,0004.10
2022-02-09 23:08:00,,0826.1,5.00,0.00,27.7,26.9,00.0,36.6,29.5,10.0,0000.0,0011.65,0004.68,0004.10
2022-02-09 23:09:00,,0826.0,5.00,0.00,27.7,26.9,00.0,36.6,29.5,09.9,0000.0,0011.90,0004.68,0004.09
2022-02-09 23:10:00,,0826.1,5.01,0.00,27.7,26.9,00.0,36.6,29.5,10.0,0000.0,0012.01,0004.68,0004.08
2022-02-09 23:11:00,,0826.0,5.01,0.00,27.7,26.9,00.0,36.6,29.5,10.2,0000.0,0012.20,0004.66,0004.08
2022-02-09 23:12:00,,0826.0,4.98,0.00,27.7,26.9,00.0,36.6,29.5,10.3,0000.0,0011.67,0004.66,0004.07
2022-02-09 23:13:00,,0826.0,5.00,0.00,27.7,26.9,00.0,36.6,29.5,10.3,0000.0,0011.43,0004.68,0004.07
2022-02-09 23:14:00,,0826.0,5.00,0.00,27.7,26.9,00.0,36.6,29.5,10.4,0000.0,0011.10,0004.71,0004.07
2022-02-09 23:15:00,,0826.0,5.00,0.00,27.7,26.9,00.0,36.6,29.5,10.3,0000.0,0011.13,0004.73,0004.07
2022-02-09 23:16:00,,0825.9,5.00,0.00,27.7,26.9,00.0,36.6,29.5,10.0,0000.0,0011.39,0004.74,0004.08
2022-02-09 23:17:00,,0825.8,5.00,0.00,27.7,26.9,00.0,36.6,29.5,09.8,0000.0,0011.54,0004.75,0004.08
2022-02-09 23:18:00,,0825.9,5.01,0.00,27.7,26.9,00.0,36.6,29.5,09.9,0000.0,0010.88,0004.74,0004.09
2022-02-09 23:19:00,,0825.9,4.99,0.00,27.7,26.9,00.0,36.6,29.5,09.7,0000.0,0010.49,0004.74,0004.08
2022-02-09 23:20:00,,0825.9,5.00,0.00,27.7,26.9,00.0,36.6,29.5,09.4,0000.0,0010.12,0004.70,0004.06
2022-02-09 23:21:00,,0825.9,5.01,0.00,27.7,26.9,00.0,36.6,29.5,09.3,0000.0,0010.04,0004.67,0004.04
2022-02-09 23:22:00,,0825.9,5.00,0.00,27.6,26.8,00.0,36.6,29.4,09.3,0000.0,0009.79,0004.64,0004.01
2022-02-09 23:23:00,,0825.9,5.00,0.00,27.6,26.8,00.0,36.6,29.4,09.3,0000.0,0010.28,0004.64,0004.01
2022-02-09 23:24:00,,0825.9,4.99,0.00,27.6,26.8,00.0,36.6,29.4,09.4,0000.0,0010.74,0004.61,0003.99
2022-02-09 23:25:00,,0825.9,5.00,0.00,27.6,26.8,00.0,36.6,29.4,09.8,0000.0,0010.74,0004.57,0003.97
2022-02-09 23:26:00,,0825.9,5.02,0.00,27.6,26.8,00.0,36.6,29.4,10.0,0000.0,0010.76,0004.57,0003.96
2022-02-09 23:27:00,,0825.9,4.99,0.00,27.6,26.8,00.0,36.6,29.4,10.3,0000.0,0010.97,0004.55,0003.94
2022-02-09 23:28:00,,0825.9,5.00,0.00,27.6,26.8,00.0,36.6,29.4,10.4,0000.0,0011.18,0004.49,0003.93
2022-02-09 23:29:00,,0825.9,5.00,0.00,27.6,26.8,00.0,36.6,29.4,10.2,0000.0,0010.38,0004.42,0003.91
2022-02-09 23:30:00,,0825.9,5.01,0.00,27.6,26.8,00.0,36.6,29.4,10.1,0000.0,0010.29,0004.38,0003.90
2022-02-09 23:31:00,,0825.9,4.99,0.00,27.6,26.8,00.0,36.6,29.4,10.1,0000.0,0010.28,0004.39,0003.90
2022-02-09 23:32:00,,0825.9,5.01,0.00,27.6,26.8,00.0,36.5,29.4,09.9,0000.0,0010.06,0004.41,0003.92
2022-02-09 23:33:00,,0825.9,5.01,0.00,27.6,26.8,00.0,36.5,29.4,10.0,0000.0,0010.17,0004.42,0003.93
2022-02-09 23:34:00,,0825.9,4.99,0.00,27.6,26.7,00.0,36.5,29.3,10.0,0000.0,0010.00,0004.41,0003.93
2022-02-09 23:35:00,,0825.9,5.01,0.00,27.5,26.7,00.0,36.5,29.3,10.0,0000.0,0009.48,0004.41,0003.94
2022-02-09 23:36:00,,0825.9,4.99,0.00,27.5,26.7,00.0,36.5,29.3,10.2,0000.0,0009.52,0004.43,0003.94
2022-02-09 23:37:00,,0826.0,4.99,0.00,27.5,26.7,00.0,36.5,29.2,10.3,0000.0,0009.47,0004.43,0003.95
2022-02-09 23:38:00,,0826.0,5.00,0.00,27.5,26.7,00.0,36.5,29.2,10.5,0000.0,0009.22,0004.45,0003.96
2022-02-09 23:39:00,,0826.0,5.02,0.00,27.4,26.6,00.0,36.5,29.2,10.7,0000.0,0008.84,0004.46,0003.96
2022-02-09 23:40:00,,0826.1,4.99,0.00,27.4,26.6,00.0,36.5,29.1,10.9,0000.0,0009.02,0004.52,0003.98
2022-02-09 23:41:00,,0826.0,5.00,0.00,27.4,26.6,00.0,36.5,29.1,10.9,0000.0,0009.20,0004.57,0004.00
2022-02-09 23:42:00,,0826.0,5.01,0.00,27.4,26.6,00.0,36.5,29.1,10.7,0000.0,0009.33,0004.60,0004.01
2022-02-09 23:43:00,,0825.9,5.00,0.00,27.3,26.6,00.0,36.4,29.0,10.7,0000.0,0009.36,0004.63,0004.02
2022-02-09 23:44:00,,0825.9,4.99,0.00,27.3,26.5,00.0,36.4,29.0,10.5,0000.0,0009.40,0004.67,0004.04
2022-02-09 23:45:00,,0825.9,5.00,0.00,27.3,26.5,00.0,36.4,29.0,10.6,0000.0,0009.32,0004.67,0004.04
2022-02-09 23:46:00,,0826.0,5.00,0.00,27.3,26.5,00.0,36.4,29.0,10.5,0000.0,0010.24,0004.71,0004.06
2022-02-09 23:47:00,,0826.0,5.02,0.00,27.3,26.4,00.0,36.4,29.0,10.5,0000.0,0010.39,0004.72,0004.07
2022-02-09 23:48:00,,0826.0,5.00,0.00,27.3,26.4,00.0,36.3,29.0,10.4,0000.0,0011.66,0004.70,0004.07
2022-02-09 23:49:00,,0826.0,5.00,0.00,27.2,26.4,00.0,36.3,28.9,10.4,0000.0,0012.60,0004.72,0004.08
2022-02-09 23:50:00,,0825.9,4.99,0.00,27.2,26.4,00.0,36.3,28.9,10.4,0000.0,0012.74,0004.74,0004.08
2022-02-09 23:51:00,,0825.9,5.00,0.00,27.2,26.4,00.0,36.3,28.9,10.3,0000.0,0012.70,0004.71,0004.08
2022-02-09 23:52:00,,0825.9,5.01,0.00,27.2,26.4,00.0,36.3,28.9,10.2,0000.0,0012.65,0004.70,0004.09
2022-02-09 23:53:00,,0826.0,5.00,0.00,27.2,26.4,00.0,36.3,28.9,10.1,0000.0,0012.75,0004.70,0004.10
2022-02-09 23:54:00,,0826.0,4.99,0.00,27.2,26.3,00.0,36.3,28.9,10.1,0000.0,0012.94,0004.71,0004.12
2022-02-09 23:55:00,,0826.0,5.00,0.00,27.1,26.3,00.0,36.3,28.9,10.2,0000.0,0013.04,0004.75,0004.13
2022-02-09 23:56:00,,0826.1,4.99,0.00,27.1,26.3,00.0,36.2,28.9,10.1,0000.0,0013.12,0004.81,0004.15
2022-02-09 23:57:00,,0826.0,5.01,0.00,27.1,26.3,00.0,36.2,28.9,10.5,0000.0,0012.83,0004.83,0004.16
2022-02-09 23:58:00,,0826.1,4.98,0.00,27.1,26.3,00.0,36.2,28.9,10.9,0000.0,0012.80,0004.81,0004.16
2022-02-09 23:59:00,,0826.0,5.00,0.00,27.1,26.3,00.0,36.2,28.9,10.9,0000.0,0011.91,0004.80,0004.16
